EW0349 Weather Reports


time (UTC)temp
F
wind
direction
speed
knots
gust
knots
rain 1hr
in
rain 24hr
in
rain mn
in
humidity
%
barometer
mb
20260502223042 63 92 1.7 4.3 0.00 0.00 0.00 65 1012.8
20260502221544 62 67 0.0 2.6 0.00 0.00 0.00 67 1013.0
20260502220040 62 22 1.7 4.3 0.00 0.00 0.00 66 1013.2
20260502214547 62 90 0.9 4.3 0.00 0.00 0.00 65 1013.2
20260502213039 62 86 0.9 5.2 0.00 0.00 0.00 64 1013.3
20260502211535 62 98 0.9 4.3 0.00 0.00 0.00 63 1013.5
20260502210034 63 108 2.6 6.1 0.00 0.00 0.00 62 1013.7
20260502204531 62 88 0.9 5.2 0.00 0.00 0.00 63 1013.9
20260502203028 61 5 0.9 3.5 0.00 0.00 0.00 65 1014.0
20260502201526 60 16 1.7 7.0 0.00 0.00 0.00 65 1014.3
20260502200023 60 89 0.9 4.3 0.00 0.00 0.00 65 1014.5
20260502194526 59 86 1.7 5.2 0.00 0.00 0.00 66 1014.8
20260502193018 58 299 0.0 3.5 0.00 0.00 0.00 65 1015.0
20260502191515 58 55 1.7 5.2 0.00 0.00 0.00 66 1014.8
20260502190015 57 5 0.9 6.1 0.00 0.00 0.00 66 1015.0
20260502184514 57 86 0.9 5.2 0.00 0.00 0.00 65 1015.2
20260502183010 56 60 1.7 5.2 0.00 0.00 0.00 65 1015.5
20260502181508 56 302 0.0 3.5 0.00 0.00 0.00 65 1015.5
20260502163058 53 75 1.7 4.3 0.00 0.00 0.00 63 1015.8
20260502161553 52 91 0.9 4.3 0.00 0.00 0.00 62 1016.0
20260502151558 49 307 0.0 2.6 0.00 0.00 0.00 58 1015.9
20260502150103 49 304 0.0 1.7 0.00 0.00 0.00 60 1015.8
20260502123056 48 314 0.0 0.9 0.00 0.00 0.00 59 1015.9
20260502121540 48 313 0.0 0.9 0.00 0.00 0.00 61 1015.9
20260502114543 48 303 0.0 1.7 0.00 0.00 0.00 61 1015.8
20260502113042 48 304 0.0 0.0 0.00 0.00 0.00 63 1015.8
20260502111541 49 304 0.0 0.0 0.00 0.00 0.00 65 1015.7
20260502110038 49 304 0.0 0.0 0.00 0.00 0.00 67 1015.9
20260502104537 49 304 0.0 0.0 0.00 0.00 0.00 68 1015.6
20260502103029 50 304 0.0 0.0 0.00 0.00 0.00 69 1015.8
20260502101528 50 304 0.0 2.6 0.00 0.00 0.00 69 1015.7
20260502091526 51 257 0.0 3.5 0.00 0.00 0.00 70 1016.0
20260502071508 52 305 0.9 4.3 0.00 0.00 0.00 69 1016.5
20260502070006 52 286 0.0 4.3 0.00 0.00 0.00 69 1016.8
20260502064501 52 280 0.9 2.6 0.00 0.00 0.00 69 1016.7
20260502063057 53 248 0.9 2.6 0.00 0.00 0.00 69 1016.7
20260502061553 53 273 0.0 4.3 0.00 0.00 0.00 69 1016.6
20260502060054 53 264 0.9 3.5 0.00 0.00 0.00 69 1016.7
20260502054544 52 240 0.0 4.3 0.00 0.00 0.00 69 1016.7
20260502053046 52 46 0.0 1.7 0.00 0.00 0.00 69 1016.6
20260502051539 53 39 0.0 2.6 0.00 0.00 0.00 70 1016.4
20260502050030 53 38 0.0 1.7 0.00 0.00 0.00 70 1016.3
20260502044525 53 34 0.0 1.7 0.00 0.00 0.00 71 1016.1
20260502043021 53 233 0.9 6.1 0.00 0.00 0.00 71 1016.0
20260502041518 54 163 0.0 1.7 0.00 0.00 0.00 71 1015.8
20260502040021 54 58 0.0 3.5 0.00 0.00 0.00 71 1015.6
20260502034508 55 309 0.0 5.2 0.00 0.00 0.00 71 1015.4
20260502033005 56 221 0.9 4.3 0.00 0.00 0.00 69 1015.3
20260502031603 56 301 0.9 8.7 0.00 0.00 0.00 68 1015.1
20260502030100 57 250 0.9 5.2 0.00 0.00 0.00 67 1014.9
20260502024551 58 286 0.9 5.2 0.00 0.00 0.00 67 1014.7
20260502023106 59 257 0.0 2.6 0.00 0.00 0.00 66 1014.5
20260502021544 60 257 2.6 7.0 0.00 0.00 0.00 66 1014.5
20260502020038 61 292 2.6 7.0 0.00 0.00 0.00 65 1014.5
20260502014539 63 284 1.7 7.0 0.00 0.00 0.00 63 1014.5
20260502013028 64 280 0.9 4.3 0.00 0.00 0.00 62 1014.4
20260502011525 65 309 1.7 5.2 0.00 0.00 0.00 61 1014.3
20260502010020 65 275 2.6 7.8 0.00 0.00 0.00 61 1014.3
20260502004515 67 294 2.6 6.1 0.00 0.00 0.00 57 1014.3
20260502003011 69 255 0.9 5.2 0.00 0.00 0.00 57 1014.3
20260502001508 69 290 1.7 4.3 0.00 0.00 0.00 56 1014.1
20260502000002 70 302 1.7 5.2 0.00 0.00 0.00 55 1014.1
20260501234559 70 36 0.0 3.5 0.00 0.00 0.00 55 1014.2
20260501233054 70 281 0.9 6.1 0.00 0.00 0.00 55 1014.2
20260501231558 70 261 1.7 4.3 0.00 0.00 0.00 53 1014.3
20260501230048 71 290 1.7 5.2 0.00 0.00 0.00 53 1014.5
20260501224545 70 293 0.0 3.5 0.00 0.00 0.00 54 1014.6